Showing default

WEINA 1A, 43169

Orbit data source: Space-Track

WEINA 1A, 43169 is a payload satellite owned by Weina (CN) in LEO that was launched on Thu, 25 Jan 2018 UTC via a CHANG ZHENG 2C launch vehicle from the Xichang Space Center, China (XSC). Payload-class satellites include a variety of spacecraft equipped with specific instruments for various scientific and technological missions. These include communications satellites like Starlink; space stations such as the ISS; scientific satellites like the Hubble; Earth observation satellites from companies like Planet Labs, Umbra, and HawkEye 360; GPS; miniature CubeSats for education and research; and military/defense satellites.

Loading next visibility...
Identifier
43169, 2018-011A
Orbit
LEO
Country
Flag of CNCN / PRC
Related business
Manufacturer
SECM
Mission
Operational Defense Technology
Bus & Motor
Unknown
Mass
~5 kg wet, ~5 kg dry
Launch date (UTC)
2018-01-25 (8 years ago)
Launch vehicle
CHANG ZHENG 2C
Launch site
Xichang Space Center, China (XSC)
Object type
Payload
Rocket body
Debris
Shape & HBR
Box, 0.1 m
Radar Cross Section
0.025 m², Medium (>0.1 m² and < 1m²)

Expand to show TLE details & history
Last TLE update: 8 hours ago

TLE from 8 hours ago
0 WEINA 1A
1 43169U 18011A   26125.88958413  .00002461  00000-0  19207-3 0  9991
2 43169  34.9960  58.9682 0002125  10.3644 349.7107 15.00823744451760
Epoch: 2026-05-05T21:21Z
TLE epoch observation values (Epoch: 2026-05-05T21:21:00.068Z)
Latitude
-0.00004°
Longitude
-125.04009°
Altitude
561.821 km
Speed
7.583 km/s
True Right ascension
03h 55m 52s
True Declination
0° 00' 00"
Sunlit
Object was in daylight at epoch
Visualization orbit readout
Latitude
Unknown
Longitude
Unknown
Altitude
Unknown
Speed
Unknown
Apparent Right ascension
Unknown
Apparent Declination
Unknown
Sunlit
N/A
Visualization observer readout
Local Sidereal Time
13:14:57
Azimuth
Unknown
Elevation
Unknown
Doppler factor
Unknown
Orbital elements
Apogee altitude
569.05 km
Perigee altitude
566.098 km
Semi-major axis
6,945.711 km
Eccentricity
0.00021
Inclination
34.996°
RAAN
58.9682°
Arg. of periapsis
10.3644°
True anomaly
349.70635°
Mean anomaly
349.7107°
Eccentric anomaly
349.70852°
Mean motion
3.74945 °/min
Orbital period
96.01 mins
BSTAR
0.00019207
Loading maneuver chart data...
Computing Atmospheric mass density...
Loading historical data...
Loading historical data...
Loading historical data...
Loading historical data...
Loading historical data...
Loading historical data...
Loading historical data...
Other satellites on launch #11 in the year 2018 (2018-01-25 UTC)

Documentation

Showing up to 5 results
|